Location: Northcutt
(34.7304°N, 84.4305°W)
Time: 09:02:35
(UTC+00:00)

Transit 2A Rocket - Pass Details

Date: 10 October 2022
Orbit: 589 x 911 km, 66.7° (Epoch: 04 December)

Event Time Altitude Azimuth Distance (km) Brightness Sun altitude
Exits shadow 08:55:07 17° 41° (NE) 1,536 7.1 -34.2°
Drops below altitude 10° 08:56:08 10° 37° (NE) 1,922 7.6 -34.0°
Sets 08:58:25 0° 33° (NNE) 2,839 8.6 -33.6°
